FW2321 Weather Reports


Display with metric or nautical units.
time (UTC)temp
F
wind
direction
speed
MPH
gust
MPH
rain 1hr
in
rain 24hr
in
rain mn
in
humidity
%
barometer
mb
20260507085034 28 0 0.0 0.0 0.00 0.00 0.00 90 1013.7
20260507084555 29 0 0.0 0.0 0.00 0.00 0.00 90 1013.8
20260507084034 28 0 0.0 0.0 0.00 0.00 0.00 90 1013.7
20260507083534 28 0 0.0 0.0 0.00 0.00 0.00 89 1013.7
20260507083044 29 0 0.0 0.0 0.00 0.00 0.00 89 1013.7
20260507082533 29 0 0.0 0.0 0.00 0.00 0.00 89 1013.8
20260507082034 29 0 0.0 0.0 0.00 0.00 0.00 89 1013.7
20260507081543 29 0 0.0 0.0 0.00 0.00 0.00 89 1013.7
20260507081035 29 0 0.0 0.0 0.00 0.00 0.00 89 1013.7
20260507080535 29 0 0.0 0.0 0.00 0.00 0.00 89 1013.7
20260507080111 29 0 0.0 0.0 0.00 0.00 0.00 88 1013.7
20260507075534 29 0 0.0 0.0 0.00 0.00 0.00 88 1013.7
20260507075036 29 0 0.0 0.0 0.00 0.00 0.00 88 1013.7
20260507074548 29 0 0.0 0.0 0.00 0.00 0.00 88 1013.6
20260507074035 29 0 0.0 0.0 0.00 0.00 0.00 87 1013.7
20260507073534 30 0 0.0 0.0 0.00 0.00 0.00 86 1013.9
20260507073057 30 0 0.0 0.0 0.00 0.00 0.00 86 1014.0
20260507072535 30 0 0.0 0.0 0.00 0.00 0.00 85 1013.9
20260507072038 30 0 0.0 0.0 0.00 0.00 0.00 85 1013.9
20260507071549 30 0 0.0 0.0 0.00 0.00 0.00 84 1013.9
20260507071043 31 0 0.0 0.0 0.00 0.00 0.00 83 1014.0
20260507070538 31 0 0.0 0.0 0.00 0.00 0.00 83 1014.0
20260507070050 32 0 0.0 0.0 0.00 0.00 0.00 83 1014.0
20260507065538 32 0 0.0 0.0 0.00 0.00 0.00 83 1014.1
20260507065037 32 0 0.0 0.0 0.00 0.00 0.00 81 1014.1
20260507064549 33 0 0.0 0.0 0.00 0.00 0.00 80 1014.2
20260507064038 33 0 0.0 0.0 0.00 0.00 0.00 80 1014.1
20260507063534 33 0 0.0 0.0 0.00 0.00 0.00 80 1014.2
20260507063048 34 0 0.0 0.0 0.00 0.00 0.00 79 1014.3
20260507062537 34 0 0.0 0.0 0.00 0.00 0.00 78 1014.4
20260507062038 34 0 0.0 0.0 0.00 0.00 0.00 78 1014.4
20260507061546 34 0 0.0 0.0 0.00 0.00 0.00 78 1014.5
20260507061037 34 0 0.0 0.0 0.00 0.00 0.00 78 1014.5
20260507060539 34 0 0.0 0.0 0.00 0.00 0.00 78 1014.5
20260507060051 34 0 0.0 0.0 0.00 0.00 0.00 77 1014.5
20260507055538 34 0 0.0 0.0 0.00 0.00 0.00 78 1014.4
20260507055038 34 0 0.0 0.0 0.00 0.00 0.00 78 1014.3
20260507054552 34 0 0.0 1.0 0.00 0.00 0.00 79 1014.5
20260507054038 34 0 0.0 1.0 0.00 0.00 0.00 79 1014.4
20260507053538 34 0 0.0 1.0 0.00 0.00 0.00 78 1014.4
20260507053047 34 0 0.0 1.0 0.00 0.00 0.00 78 1014.4
20260507052535 34 0 0.0 0.0 0.00 0.00 0.00 79 1014.4
20260507052038 34 0 0.0 0.0 0.00 0.00 0.00 79 1014.6
20260507051541 34 0 0.0 0.0 0.00 0.00 0.00 79 1014.6
20260507051035 34 0 0.0 1.0 0.00 0.00 0.00 80 1014.5
20260507050535 34 0 0.0 1.0 0.00 0.00 0.00 80 1014.5
20260507050047 34 0 0.0 0.0 0.00 0.00 0.00 81 1014.6
20260507045537 34 0 0.0 0.0 0.00 0.00 0.00 81 1014.5
20260507045038 34 0 0.0 0.0 0.00 0.00 0.00 81 1014.5
20260507044551 34 0 0.0 0.0 0.00 0.00 0.00 80 1014.5
20260507044038 34 0 0.0 0.0 0.00 0.00 0.00 79 1014.6
20260507043539 34 0 0.0 0.0 0.00 0.00 0.00 79 1014.6
20260507043044 34 0 0.0 0.0 0.00 0.00 0.00 78 1014.5
20260507042537 34 0 0.0 0.0 0.00 0.00 0.00 77 1014.5
20260507042038 35 0 0.0 0.0 0.00 0.00 0.00 76 1014.5
20260507041553 35 0 0.0 0.0 0.00 0.00 0.00 75 1014.6
20260507041034 35 0 0.0 0.0 0.00 0.00 0.00 74 1014.6
20260507040533 36 0 0.0 1.0 0.00 0.00 0.00 72 1014.5
20260507040048 36 0 0.0 1.0 0.00 0.00 0.00 71 1014.6
20260507035534 37 0 0.0 0.0 0.00 0.00 0.00 71 1014.5
20260507035033 37 0 0.0 1.0 0.00 0.00 0.00 69 1014.6
20260507034549 38 0 0.0 1.0 0.00 0.00 0.00 68 1014.6
20260507034032 38 0 0.0 1.0 0.00 0.00 0.00 67 1014.6
20260507033534 38 0 0.0 2.0 0.00 0.00 0.00 66 1014.6
20260507033041 39 0 0.0 2.0 0.00 0.00 0.00 66 1014.9
20260507032534 39 0 0.0 2.0 0.00 0.00 0.00 65 1014.7
20260507032038 39 0 0.0 0.0 0.00 0.00 0.00 65 1014.8
20260507031547 40 0 0.0 1.0 0.00 0.00 0.00 64 1015.0
20260507031036 40 0 0.0 2.0 0.00 0.00 0.00 63 1014.8
20260507030533 40 0 0.0 2.0 0.00 0.00 0.00 63 1014.9
20260507030044 41 296 0.0 2.0 0.00 0.00 0.00 62 1014.8
20260507025533 41 0 0.0 3.0 0.00 0.00 0.00 62 1014.7
20260507025033 42 297 0.0 4.0 0.00 0.00 0.00 61 1014.7
20260507024542 42 297 1.0 4.0 0.00 0.00 0.00 61 1014.6
20260507024037 42 0 1.0 7.0 0.00 0.00 0.00 61 1014.6
20260507023533 42 298 1.0 7.0 0.00 0.00 0.00 60 1014.6
20260507023046 43 0 2.0 7.0 0.00 0.00 0.00 60 1014.5
20260507022538 43 0 2.0 10.0 0.00 0.00 0.00 60 1014.5
20260507022034 43 283 2.0 10.0 0.00 0.00 0.00 59 1014.5
20260507021547 43 266 3.0 10.0 0.00 0.00 0.00 59 1014.4
20260507021039 43 306 2.0 9.0 0.00 0.00 0.00 58 1014.2
20260507020533 44 294 4.0 10.0 0.00 0.00 0.00 58 1014.3
20260507020106 44 0 4.0 11.0 0.00 0.00 0.00 57 1014.3
20260507015532 44 281 3.0 15.0 0.00 0.00 0.00 57 1014.2
20260507015035 45 316 4.0 15.0 0.00 0.00 0.00 56 1014.1
20260507014552 45 240 6.0 15.0 0.00 0.00 0.00 56 1014.1
20260507014033 45 326 6.0 16.0 0.00 0.00 0.00 56 1014.1
20260507013533 45 313 4.0 16.0 0.00 0.00 0.00 56 1013.9
20260507013051 45 279 4.0 14.0 0.00 0.00 0.00 56 1013.9
20260507012533 45 298 5.0 14.0 0.00 0.00 0.00 56 1013.7
20260507012033 45 281 4.0 12.0 0.00 0.00 0.00 56 1013.7
20260507011548 46 323 4.0 10.0 0.00 0.00 0.00 56 1013.6
20260507011032 46 277 3.0 9.0 0.00 0.00 0.00 56 1013.5
20260507010536 46 265 3.0 9.0 0.00 0.00 0.00 56 1013.5
20260507010042 46 302 4.0 9.0 0.00 0.00 0.00 55 1013.5
20260507005539 46 315 3.0 8.0 0.00 0.00 0.00 55 1013.4
20260507005041 47 313 3.0 10.0 0.00 0.00 0.00 55 1013.3
20260507004554 47 324 5.0 12.0 0.00 0.00 0.00 55 1013.3
20260507004037 47 318 5.0 12.0 0.00 0.00 0.00 54 1013.2
20260507003543 47 323 4.0 15.0 0.00 0.00 0.00 54 1013.2
20260507003052 48 329 6.0 15.0 0.00 0.00 0.00 54 1013.2
20260507002535 48 279 7.0 15.0 0.00 0.00 0.00 54 1013.2
20260507002039 48 281 6.0 15.0 0.00 0.00 0.00 53 1013.1
20260507001546 48 269 4.0 12.0 0.00 0.00 0.00 54 1013.0
20260507001035 49 287 4.0 13.0 0.00 0.00 0.00 53 1013.1
20260507000536 49 334 4.0 16.0 0.00 0.00 0.00 53 1012.9
20260507000041 49 311 5.0 16.0 0.00 0.00 0.00 53 1012.9
20260506235535 49 298 5.0 15.0 0.00 0.00 0.00 52 1012.8
20260506235038 49 286 5.0 15.0 0.00 0.00 0.00 52 1012.9
20260506234548 49 277 6.0 14.0 0.00 0.00 0.00 52 1012.9
20260506234036 50 284 4.0 12.0 0.00 0.00 0.00 51 1012.7
20260506233536 50 271 5.0 13.0 0.00 0.00 0.00 51 1012.8
20260506233102 50 314 5.0 13.0 0.00 0.00 0.00 51 1012.7
20260506232537 50 281 6.0 12.0 0.00 0.00 0.00 50 1012.7
20260506232037 50 345 5.0 15.0 0.00 0.00 0.00 51 1012.7
20260506231556 50 323 5.0 15.0 0.00 0.00 0.00 50 1012.6
20260506231034 50 284 6.0 15.0 0.00 0.00 0.00 50 1012.5
20260506230536 50 270 2.0 10.0 0.00 0.00 0.00 53 1012.5
20260506230055 50 325 4.0 10.0 0.00 0.00 0.00 51 1012.5
20260506225536 50 281 5.0 11.0 0.00 0.00 0.00 51 1012.4
20260506225038 50 224 5.0 12.0 0.00 0.00 0.00 51 1012.4
20260506224543 50 276 5.0 12.0 0.00 0.00 0.00 51 1012.5
20260506224037 50 275 6.0 12.0 0.00 0.00 0.00 50 1012.4
20260506223535 50 267 3.0 12.0 0.00 0.00 0.00 52 1012.4
20260506223052 51 299 4.0 12.0 0.00 0.00 0.00 52 1012.3
20260506222538 51 273 4.0 14.0 0.00 0.00 0.00 51 1012.3
20260506222035 51 284 5.0 14.0 0.00 0.00 0.00 51 1012.3
20260506221550 51 312 3.0 14.0 0.00 0.00 0.00 50 1012.2
20260506221037 51 254 5.0 14.0 0.00 0.00 0.00 50 1012.2
20260506220537 51 288 5.0 14.0 0.00 0.00 0.00 50 1012.2
20260506220049 51 298 7.0 14.0 0.00 0.00 0.00 49 1012.2
20260506215536 51 279 2.0 8.0 0.00 0.00 0.00 51 1012.2
20260506215036 51 286 2.0 11.0 0.00 0.00 0.00 51 1012.1
20260506214543 51 0 3.0 12.0 0.00 0.00 0.00 51 1012.1
20260506214036 51 316 4.0 12.0 0.00 0.00 0.00 50 1012.1
20260506213532 51 284 4.0 11.0 0.00 0.00 0.00 53 1012.1
20260506213058 51 269 4.0 12.0 0.00 0.00 0.00 50 1012.0
20260506212532 51 269 5.0 12.0 0.00 0.00 0.00 50 1012.2
20260506212036 51 257 4.0 11.0 0.00 0.00 0.00 50 1012.1
20260506211546 51 277 2.0 11.0 0.00 0.00 0.00 52 1012.0
20260506211033 51 277 1.0 11.0 0.00 0.00 0.00 52 1012.1
20260506210536 51 311 5.0 11.0 0.00 0.00 0.00 50 1012.1
20260506210041 52 297 3.0 9.0 0.00 0.00 0.00 51 1012.2
20260506205532 52 272 3.0 10.0 0.00 0.00 0.00 51 1012.0
20260506205034 51 317 4.0 12.0 0.00 0.00 0.00 51 1012.1
20260506204538 51 253 3.0 13.0 0.00 0.00 0.00 50 1012.2
20260506204034 51 280 6.0 13.0 0.00 0.00 0.00 49 1012.1
20260506203534 52 328 5.0 12.0 0.00 0.00 0.00 49 1012.2
20260506203044 52 337 4.0 12.0 0.00 0.00 0.00 50 1012.2
20260506202537 52 273 5.0 12.0 0.00 0.00 0.00 47 1012.2
20260506202034 53 275 5.0 12.0 0.00 0.00 0.00 49 1012.4
20260506201543 53 277 3.0 13.0 0.00 0.00 0.00 52 1012.3
20260506201038 53 300 4.0 13.0 0.00 0.00 0.00 50 1012.4
20260506200533 53 272 3.0 10.0 0.00 0.00 0.00 51 1012.4
20260506200043 53 236 4.0 10.0 0.00 0.00 0.00 49 1012.3
20260506195537 53 265 3.0 9.0 0.00 0.00 0.00 50 1012.4
20260506195037 53 291 3.0 11.0 0.00 0.00 0.00 49 1012.3
20260506194542 53 276 5.0 13.0 0.00 0.00 0.00 48 1012.5
20260506194034 53 294 4.0 13.0 0.00 0.00 0.00 48 1012.3
20260506193538 53 284 5.0 15.0 0.00 0.00 0.00 49 1012.3
20260506193040 53 289 5.0 15.0 0.00 0.00 0.00 50 1012.4
20260506192535 52 355 3.0 11.0 0.00 0.00 0.00 50 1012.3
20260506192034 52 294 4.0 9.0 0.00 0.00 0.00 49 1012.2
20260506191546 52 200 5.0 9.0 0.00 0.00 0.00 49 1012.3
20260506191034 52 311 3.0 9.0 0.00 0.00 0.00 51 1012.3
20260506190536 52 232 3.0 13.0 0.00 0.00 0.00 50 1012.3
20260506190046 52 245 3.0 13.0 0.00 0.00 0.00 51 1012.5
20260506185536 52 355 4.0 12.0 0.00 0.00 0.00 50 1012.4
20260506185037 52 205 4.0 12.0 0.00 0.00 0.00 49 1012.5
20260506184551 52 278 4.0 12.0 0.00 0.00 0.00 49 1012.4
20260506184035 52 288 4.0 12.0 0.00 0.00 0.00 50 1012.2
20260506183535 52 253 3.0 10.0 0.00 0.00 0.00 52 1012.3
20260506183057 52 243 3.0 14.0 0.00 0.00 0.00 49 1012.3
20260506182534 53 221 4.0 14.0 0.00 0.00 0.00 51 1012.2
20260506182034 53 265 5.0 14.0 0.00 0.00 0.00 50 1012.2
20260506181618 53 224 3.0 14.0 0.00 0.00 0.00 49 1012.1
20260506181038 53 275 4.0 14.0 0.00 0.00 0.00 50 1012.1
20260506180535 52 293 4.0 12.0 0.00 0.00 0.00 52 1012.1
20260506180051 52 286 4.0 11.0 0.00 0.00 0.00 49 1012.2
20260506175536 51 288 4.0 9.0 0.00 0.00 0.00 50 1012.3
20260506175041 51 269 4.0 9.0 0.00 0.00 0.00 50 1012.4
20260506174548 51 335 4.0 11.0 0.00 0.00 0.00 49 1012.4
20260506174037 51 315 4.0 11.0 0.00 0.00 0.00 50 1012.5
20260506173535 52 226 5.0 11.0 0.00 0.00 0.00 51 1012.4
20260506173056 52 225 3.0 11.0 0.00 0.00 0.00 53 1012.5
20260506172536 51 227 3.0 11.0 0.00 0.00 0.00 53 1012.5
20260506172035 51 281 5.0 11.0 0.00 0.00 0.00 52 1012.6
20260506171549 51 276 3.0 11.0 0.00 0.00 0.00 53 1012.7
20260506171035 51 239 4.0 10.0 0.00 0.00 0.00 50 1012.5
20260506170538 51 219 4.0 13.0 0.00 0.00 0.00 51 1012.8
20260506170052 51 280 6.0 14.0 0.00 0.00 0.00 49 1012.8
20260506165535 51 242 6.0 14.0 0.00 0.00 0.00 51 1012.8
20260506165038 51 281 4.0 13.0 0.00 0.00 0.00 52 1012.8
20260506164549 52 259 4.0 13.0 0.00 0.00 0.00 53 1012.8
20260506164038 52 286 5.0 10.0 0.00 0.00 0.00 51 1012.8
20260506163534 51 279 3.0 10.0 0.00 0.00 0.00 52 1012.8
20260506163050 51 240 4.0 12.0 0.00 0.00 0.00 50 1012.8
20260506162537 52 230 4.0 12.0 0.00 0.00 0.00 54 1012.7
20260506162038 51 301 2.0 13.0 0.00 0.00 0.00 60 1012.7
20260506161548 50 218 4.0 13.0 0.00 0.00 0.00 53 1012.8
20260506161034 51 282 6.0 13.0 0.00 0.00 0.00 52 1012.7
20260506160537 51 232 4.0 10.0 0.00 0.00 0.00 58 1012.7
20260506160053 50 230 1.0 11.0 0.00 0.00 0.00 57 1012.7
20260506155538 50 279 3.0 11.0 0.00 0.00 0.00 53 1012.8
20260506155035 50 269 2.0 11.0 0.00 0.00 0.00 53 1012.7
20260506154555 51 281 2.0 11.0 0.00 0.00 0.00 52 1012.6
20260506154035 51 304 5.0 12.0 0.00 0.00 0.00 52 1012.8
20260506153534 51 261 4.0 12.0 0.00 0.00 0.00 54 1012.7
20260506153107 50 223 4.0 9.0 0.00 0.00 0.00 55 1012.7
20260506152534 50 321 3.0 9.0 0.00 0.00 0.00 51 1012.7
20260506152034 51 250 2.0 10.0 0.00 0.00 0.00 53 1012.6
20260506151544 51 267 3.0 13.0 0.00 0.00 0.00 52 1012.6
20260506151038 51 302 5.0 13.0 0.00 0.00 0.00 54 1012.6
20260506150537 51 271 4.0 13.0 0.00 0.00 0.00 54 1012.7
20260506150057 51 284 2.0 10.0 0.00 0.00 0.00 53 1012.6
20260506145535 50 267 4.0 10.0 0.00 0.00 0.00 58 1012.6
20260506145037 50 266 4.0 8.0 0.00 0.00 0.00 53 1012.7
20260506144556 50 284 3.0 10.0 0.00 0.00 0.00 55 1012.7
20260506144036 50 321 4.0 10.0 0.00 0.00 0.00 55 1012.5
20260506143537 50 309 2.0 8.0 0.00 0.00 0.00 59 1012.5
20260506143043 50 0 3.0 8.0 0.00 0.00 0.00 56 1012.5
20260506142534 50 248 3.0 9.0 0.00 0.00 0.00 60 1012.6
20260506142034 50 284 3.0 9.0 0.00 0.00 0.00 56 1012.5
20260506141541 50 317 4.0 9.0 0.00 0.00 0.00 56 1012.5
20260506141035 49 329 3.0 10.0 0.00 0.00 0.00 57 1012.7
20260506140537 49 0 5.0 10.0 0.00 0.00 0.00 58 1012.6
20260506140048 49 317 1.0 8.0 0.00 0.00 0.00 62 1012.6
20260506135535 49 0 2.0 8.0 0.00 0.00 0.00 62 1012.5
20260506135038 49 275 3.0 9.0 0.00 0.00 0.00 61 1012.4
20260506134546 49 0 3.0 9.0 0.00 0.00 0.00 61 1012.5
20260506134041 48 343 3.0 9.0 0.00 0.00 0.00 60 1012.5
20260506133537 48 284 2.0 9.0 0.00 0.00 0.00 61 1012.4
20260506133048 48 0 2.0 6.0 0.00 0.00 0.00 63 1012.4
20260506132540 47 266 2.0 6.0 0.00 0.00 0.00 61 1012.3
20260506132038 47 207 1.0 6.0 0.00 0.00 0.00 63 1012.3
20260506131551 46 211 1.0 4.0 0.00 0.00 0.00 65 1012.3
20260506131037 46 226 2.0 4.0 0.00 0.00 0.00 66 1012.1
20260506130536 45 271 0.0 3.0 0.00 0.00 0.00 70 1012.2
20260506130042 45 0 1.0 3.0 0.00 0.00 0.00 71 1012.1
20260506125534 44 0 0.0 1.0 0.00 0.00 0.00 71 1012.2
20260506125034 44 0 0.0 2.0 0.00 0.00 0.00 75 1012.2
20260506124540 43 0 0.0 3.0 0.00 0.00 0.00 77 1012.2
20260506124050 42 309 0.0 3.0 0.00 0.00 0.00 81 1012.1
20260506123536 41 309 0.0 3.0 0.00 0.00 0.00 85 1012.1
20260506123042 39 309 1.0 4.0 0.00 0.00 0.00 89 1012.0
20260506122535 38 0 1.0 4.0 0.00 0.00 0.00 94 1011.8
20260506122037 37 312 0.0 3.0 0.00 0.00 0.00 97 1011.7
20260506121545 35 342 0.0 2.0 0.00 0.00 0.00 98 1011.9
20260506121039 34 0 0.0 2.0 0.00 0.00 0.00 97 1011.8
20260506120535 33 342 0.0 2.0 0.00 0.00 0.00 97 1011.8
20260506120044 33 0 0.0 1.0 0.00 0.00 0.00 97 1011.7
20260506115536 32 0 0.0 1.0 0.00 0.00 0.00 97 1011.7
20260506115037 32 0 0.0 1.0 0.00 0.00 0.00 96 1011.8
20260506114550 31 59 0.0 1.0 0.00 0.00 0.00 96 1011.8
20260506114036 31 0 0.0 0.0 0.00 0.00 0.00 95 1011.7
20260506113536 31 0 0.0 0.0 0.00 0.00 0.00 95 1011.6
20260506113048 31 0 0.0 0.0 0.00 0.00 0.00 95 1011.6
20260506112536 31 0 0.0 0.0 0.00 0.00 0.00 95 1011.4
20260506112039 31 0 0.0 0.0 0.00 0.00 0.00 95 1011.6
20260506111542 30 0 0.0 0.0 0.00 0.00 0.00 94 1011.6
20260506111035 30 0 0.0 0.0 0.00 0.00 0.00 95 1011.6
20260506110537 30 0 0.0 2.0 0.00 0.00 0.00 95 1011.4
20260506110049 30 0 0.0 2.0 0.00 0.00 0.00 94 1011.5
20260506105537 30 0 0.0 2.0 0.00 0.00 0.00 94 1011.4
20260506105039 29 0 0.0 0.0 0.00 0.00 0.00 94 1011.3
20260506104545 30 0 0.0 0.0 0.00 0.00 0.00 94 1011.0
20260506104037 30 0 0.0 0.0 0.00 0.00 0.00 94 1011.1
20260506103536 29 0 0.0 0.0 0.00 0.00 0.00 94 1011.0
20260506103052 29 0 0.0 0.0 0.00 0.00 0.00 93 1011.1
20260506102538 29 0 0.0 0.0 0.00 0.00 0.00 93 1011.0
20260506102036 29 0 0.0 0.0 0.00 0.00 0.00 93 1010.7
20260506101548 29 0 0.0 0.0 0.00 0.00 0.00 93 1010.8
20260506101035 29 0 0.0 0.0 0.00 0.00 0.00 92 1010.8
20260506100539 30 0 0.0 0.0 0.00 0.00 0.00 92 1011.0
20260506100050 30 0 0.0 0.0 0.00 0.00 0.00 92 1011.0
20260506095535 30 0 0.0 0.0 0.00 0.00 0.00 92 1011.0
20260506095036 30 0 0.0 0.0 0.00 0.00 0.00 92 1011.0
20260506094547 30 0 0.0 0.0 0.00 0.00 0.00 92 1011.0
20260506094040 30 0 0.0 0.0 0.00 0.00 0.00 92 1010.9
20260506093535 30 0 0.0 0.0 0.00 0.00 0.00 91 1011.0
20260506093047 30 0 0.0 0.0 0.00 0.00 0.00 91 1011.0
20260506092536 30 0 0.0 0.0 0.00 0.00 0.00 91 1011.1
20260506092037 30 0 0.0 0.0 0.00 0.00 0.00 90 1011.2
20260506091551 30 0 0.0 0.0 0.00 0.00 0.00 90 1011.1
20260506091036 31 0 0.0 0.0 0.00 0.00 0.00 90 1011.0
20260506090539 31 0 0.0 0.0 0.00 0.00 0.00 90 1011.0
20260506090041 31 0 0.0 0.0 0.00 0.00 0.00 89 1011.0
20260506085536 31 0 0.0 0.0 0.00 0.00 0.00 89 1011.3